| time (UTC) | temp F | wind direction | speed MPH | gust MPH | rain 1hr in | rain 24hr in | rain mn in | humidity % | barometer mb |
| 20260906134455 | 57 | 0.0 | 0.0 | 0.00 | 0.01 | 0.00 | 46 | 1010.2 | |
| 20260906132455 | 57 | 0.0 | 0.0 | 0.00 | 0.01 | 0.00 | 49 | 1010.0 | |
| 20260906130457 | 57 | 0.0 | 0.0 | 0.00 | 0.01 | 0.00 | 48 | 1009.8 | |
| 20260906124457 | 57 | 0.0 | 0.0 | 0.00 | 0.01 | 0.00 | 50 | 1009.7 | |
| 20260906122456 | 57 | 0.0 | 0.0 | 0.00 | 0.01 | 0.00 | 47 | 1009.6 | |
| 20260906112456 | 56 | 0.0 | 0.0 | 0.00 | 0.01 | 0.00 | 51 | 1009.1 | |
| 20260906104455 | 56 | 0.0 | 0.0 | 0.00 | 0.01 | 0.00 | 54 | 1008.6 | |
| 20260906102456 | 56 | 0.0 | 0.0 | 0.00 | 0.01 | 0.00 | 54 | 1008.1 | |
| 20260906100457 | 55 | 0.0 | 0.0 | 0.00 | 0.01 | 0.00 | 53 | 1007.9 | |
| 20260906094457 | 55 | 0.0 | 0.0 | 0.00 | 0.01 | 0.00 | 56 | 1007.8 | |
| 20260906090457 | 53 | 0.0 | 0.0 | 0.00 | 0.01 | 0.00 | 56 | 1007.6 | |
| 20260906084455 | 53 | 0.0 | 0.0 | 0.00 | 0.01 | 0.00 | 61 | 1007.3 | |
| 20260906082456 | 52 | 0.0 | 0.0 | 0.00 | 0.01 | 0.00 | 65 | 1007.3 | |
| 20260906080456 | 52 | 0.0 | 0.0 | 0.00 | 0.01 | 0.00 | 63 | 1007.2 | |
| 20260906074456 | 51 | 0.0 | 0.0 | 0.00 | 0.01 | 0.00 | 66 | 1007.0 | |
| 20260906072454 | 51 | 0.0 | 0.0 | 0.00 | 0.01 | 0.00 | 68 | 1006.8 | |
| 20260906064125 | 51 | 0.0 | 0.0 | 0.00 | 0.01 | 0.00 | 66 | 1006.3 | |
| 20260906062126 | 51 | 0.0 | 0.0 | 0.00 | 0.01 | 0.00 | 73 | 1006.1 | |
| 20260906060125 | 50 | 0.0 | 0.0 | 0.00 | 0.01 | 0.00 | 75 | 1006.0 | |
| 20260906054455 | 49 | 0.0 | 0.0 | 0.00 | 0.01 | 0.00 | 78 | 1005.8 | |
| 20260906052456 | 49 | 0.0 | 0.0 | 0.00 | 0.01 | 0.00 | 83 | 1005.6 | |
| 20260906050456 | 48 | 0.0 | 0.0 | 0.00 | 0.01 | 0.00 | 88 | 1005.5 | |
| 20260906044126 | 47 | 0.0 | 0.0 | 0.00 | 0.01 | 0.00 | 91 | 1005.4 | |
| 20260906040455 | 47 | 0.0 | 0.0 | 0.00 | 0.01 | 0.00 | 91 | 1005.1 | |
| 20260906034455 | 47 | 0.0 | 0.0 | 0.00 | 0.01 | 0.00 | 91 | 1005.0 | |
| 20260906032455 | 47 | 0.0 | 0.0 | 0.00 | 0.01 | 0.00 | 89 | 1004.8 | |
| 20260906030456 | 49 | 0.0 | 0.0 | 0.00 | 0.01 | 0.00 | 85 | 1004.6 | |
| 20260906024455 | 49 | 0.0 | 0.0 | 0.00 | 0.01 | 0.00 | 83 | 1004.5 | |
| 20260906022456 | 50 | 0.0 | 0.0 | 0.00 | 0.01 | 0.00 | 79 | 1004.2 | |
| 20260906014456 | 50 | 0.0 | 0.0 | 0.00 | 0.01 | 0.00 | 79 | 1003.8 | |
| 20260906012454 | 50 | 0.0 | 0.0 | 0.00 | 0.01 | 0.00 | 80 | 1003.5 | |
| 20260906010456 | 50 | 0.0 | 0.0 | 0.00 | 0.01 | 0.00 | 79 | 1003.3 | |
| 20260906004457 | 50 | 0.0 | 0.0 | 0.00 | 0.01 | 0.00 | 79 | 1003.1 | |
| 20260906002455 | 50 | 0.0 | 0.0 | 0.00 | 0.01 | 0.00 | 84 | 1002.8 | |
| 20260906000455 | 50 | 0.0 | 0.0 | 0.00 | 0.01 | 0.00 | 86 | 1002.6 | |
| 20260905234454 | 50 | 0.0 | 0.0 | 0.00 | 0.01 | 0.00 | 86 | 1002.5 | |
| 20260905230454 | 50 | 0.0 | 0.0 | 0.00 | 0.01 | 0.00 | 86 | 1002.2 | |
| 20260905224454 | 50 | 0.0 | 0.0 | 0.00 | 0.01 | 0.00 | 87 | 1002.1 | |
| 20260905222454 | 50 | 0.0 | 0.0 | 0.00 | 0.01 | 0.00 | 85 | 1002.0 | |
| 20260905220454 | 50 | 0.0 | 0.0 | 0.00 | 0.01 | 0.00 | 84 | 1001.8 | |
| 20260905214454 | 50 | 0.0 | 0.0 | 0.00 | 0.01 | 0.00 | 83 | 1001.7 | |
| 20260905212455 | 51 | 0.0 | 0.0 | 0.00 | 0.01 | 0.00 | 81 | 1001.4 | |
| 20260905210123 | 51 | 0.0 | 0.0 | 0.00 | 0.01 | 0.00 | 85 | 1001.2 | |
| 20260905204453 | 51 | 0.0 | 0.0 | 0.00 | 0.01 | 0.01 | 87 | 1001.0 | |
| 20260905202454 | 51 | 0.0 | 0.0 | 0.00 | 0.01 | 0.01 | 88 | 1000.8 | |
| 20260905200455 | 51 | 0.0 | 0.0 | 0.00 | 0.01 | 0.01 | 87 | 1000.5 | |
| 20260905194123 | 52 | 0.0 | 0.0 | 0.00 | 0.01 | 0.01 | 87 | 1000.4 | |
| 20260905190453 | 52 | 0.0 | 0.0 | 0.00 | 0.01 | 0.01 | 85 | 1000.4 | |
| 20260905182453 | 54 | 0.0 | 0.0 | 0.00 | 0.01 | 0.01 | 79 | 999.9 | |
| 20260905180451 | 54 | 0.0 | 0.0 | 0.00 | 0.01 | 0.01 | 79 | 999.7 | |
| 20260905174451 | 54 | 0.0 | 0.0 | 0.00 | 0.01 | 0.01 | 77 | 999.5 | |
| 20260905172452 | 55 | 0.0 | 0.0 | 0.00 | 0.01 | 0.01 | 77 | 999.1 | |
| 20260905170453 | 56 | 0.0 | 0.0 | 0.00 | 0.01 | 0.01 | 76 | 998.8 | |
| 20260905162451 | 56 | 0.0 | 0.0 | 0.00 | 0.01 | 0.01 | 83 | 998.3 | |
| 20260905160453 | 57 | 0.0 | 0.0 | 0.00 | 0.01 | 0.01 | 76 | 998.0 | |
| 20260905154124 | 57 | 0.0 | 0.0 | 0.00 | 0.00 | 0.00 | 74 | 997.7 | |
| 20260905152124 | 57 | 0.0 | 0.0 | 0.00 | 0.00 | 0.00 | 79 | 997.5 | |
| 20260905150122 | 57 | 0.0 | 0.0 | 0.00 | 0.00 | 0.00 | 76 | 997.4 | |
| 20260905144453 | 60 | 0.0 | 0.0 | 0.00 | 0.00 | 0.00 | 70 | 997.0 |